Warning: Javascript must be enabled to use all the features on this page!


Page Loading - Please Wait...

* We've detected you're using a mobile device. Find our Next Generation Station Page here.
Click to hideNews Bulletins
  • Attention current WaterAlert users: NextGen WaterAlert is replacing Legacy WaterAlert. You must take action before 9/30/2022 to retain your alerts. Read more.
  • Explore the NEW USGS National Water Dashboard interactive map to access real-time water data from over 13,500 stations nationwide.
  • Full News RSS icon

Peak Streamflow for the Nation

USGS 11288000 TUOLUMNE R AB LA GRANGE DAM NR LA GRANGE CA

Tuolumne County, California
Hydrologic Unit Code 18040009
Latitude  37°42'33", Longitude 120°24'44" NAD27
Drainage area 1,532  square miles
Gage datum 330.00 feet above NGVD29
Output formats
Table
Graph
Tab-separated file
peakfq (watstore) format
Reselect output format
Water
Year
Date Gage
Height
(feet)
Stream-
flow
(cfs)
1862 1862-01   130,0007,Bd
1897 1897-02-03   18,8006
1898 1897-12-08 8.003 7,6006
1899 1899-03-25 13.003 29,8006
1900 1900-01-03 10.003 15,0006
1901 1901-01-07 12.303 25,6006
1902 1902-04-07 9.703 13,8006
1903 1903-04-01 11.403 21,0006
1904 1904-02-25 10.603 17,4006
1905 1904-10-11 10.903 18,8006
1906 1906-03-24 14.003 36,5006
1907 1907-03-19 16.003 52,0006
1908 1908-04-30 3.353 5,4206
1909 1909-01-14 10.103 29,0006
1910 1909-12-09   20,5006
1911 1911-01-31 16.453 60,3006
1912 1912-06-04 5.653 12,2006
1913 1913-05-19   9,5002,6
1914 1914-01-25 16.003 57,9006
1915 1915-05-13 7.103 17,2006
1916 1916-03-20 22.65 23,0006
1917 1917-02-21 27.58 36,5006
1918 1918-03-07 22.47 23,3006
1919 1919-05-29 18.10 15,6006
1920 1920-04-16 18.05 15,5006
1921 1921-01-18   25,0002,6
1922 1922-06-05 20.70 19,9006
1923 1923-06-25 16.40 12,9006
1924 1923-10-12 9.85 3,6006
1925 1925-05-05 19.85 18,3006
1926 1926-05-19 12.65 7,1106
1927 1927-04-30 20.35 19,4006
1928 1928-03-25 29.60 38,1006
1929 1929-05-16 9.50 3,3306
1930 1930-06-13 12.75 7,4106
1931 1931-04-15 8.69 2,6106
1932 1932-06-22 15.90 11,6006
1933 1933-06-15 14.33 9,1306
1934 1934-04-11 8.97 2,9106
1935 1935-04-08 22.20 22,8006
1936 1936-05-16 15.30 10,9006
1937 1937-05-15 16.30 12,7006
1938 1938-02-11 27.30 34,4006
1939 1939-05-01 12.08 6,2106
1940 1940-03-31 27.20 29,2006
1941 1941-05-26 17.18 13,3006
1942 1942-05-26 18.80 15,5006
1943 1943-06-02 21.46 19,7006
1944 1944-05-23 11.74 4,9906
1945 1945-06-15 15.50 10,3006
1946 1946-05-21 15.50 10,3006
1947 1947-05-05   3,1301,6
1948 1948-06-26 13.47 7,2606
1949 1949-04-14 11.53 4,7406
1950 1950-06-02 15.06 9,6106
1951 1950-12-08 43.80 61,0006
1952 1952-05-15 15.87 11,4006
1953 1953-06-19 14.44 9,2606
1954 1954-03-11 13.40 7,7006
1955 1955-04-15 9.45 2,8606
1956 1955-12-24 34.00 41,7006
1957 1957-06-08 13.80 7,5206
1958 1958-06-20 16.15 11,8006
1959 1958-12-23 9.42 2,6806
1960 1960-02-04 9.57 2,8606
1961 1961-08-31 9.54 2,9406
1962 1962-03-09 11.50 5,1006
1963 1963-06-19 13.83 8,3406
1964 1963-12-09 9.63 3,0306
1965 1965-01-07 13.90 8,4506
1966 1965-12-18 9.65 3,0506
1967 1967-06-30 15.47 10,8006
1968 1968-02-24 10.13 3,5406
1969 1969-01-26 37.09 47,6006
1970 1970-01-25 13.75 8,0006
?
  Peak Gage-Height Qualification Codes.
?
  Peak Streamflow Qualification Codes.